User: anonymous   Login
Location: Muenchen
(48.1800°N, 11.5800°E)
Time: 19:12:22
(UTC+02:00)
Language:

Iridium 73 - Orbit

View from above orbital plane
View from above orbital plane
View from above satellite
View from above satellite

Ground track
Ground track

The orbit data is extracted from the following two-line orbital elements,

1 25344U 98032C   15245.56961424  .00000213  00000-0  50948-4 0  9990
2 25344  86.4428 119.1698 0002898  86.4832 334.8325 14.48793368912918
Epoch (UTC): 02 September 2015 13:40:14
Eccentricity: 0.0002898
inclination: 86.4428°
perigee height: 727 km
apogee height: 731 km
right ascension of ascending node: 119.1698°
argument of perigee: 86.4832°
revolutions per day: 14.48793368
mean anomaly at epoch: 334.8325°
orbit number at epoch: 91291

The dashed part of the orbit path shows where the satellite is in the earth's shadow,  

DLR